TimeEDT,TemperatureF,Dew PointF,Humidity,Sea Level PressureIn,VisibilityMPH,Wind Direction,Wind SpeedMPH,Gust SpeedMPH,PrecipitationIn,Events,Conditions,WindDirDegrees,DateUTC
12:54 AM,73.0,66.0,79,30.10,10.0,South,5.8,-,N/A,,Clear,170,2013-06-23 04:54:00
1:54 AM,72.0,66.0,81,30.09,10.0,South,3.5,-,N/A,,Clear,180,2013-06-23 05:54:00
2:54 AM,71.1,64.9,81,30.07,10.0,South,5.8,-,N/A,,Clear,180,2013-06-23 06:54:00
3:54 AM,71.1,64.0,78,30.06,10.0,SSE,3.5,-,N/A,,Clear,160,2013-06-23 07:54:00
4:54 AM,70.0,64.0,81,30.09,10.0,Calm,Calm,-,N/A,,Clear,0,2013-06-23 08:54:00
5:54 AM,69.1,64.0,84,30.12,10.0,Calm,Calm,-,N/A,,Clear,0,2013-06-23 09:54:00
6:54 AM,66.9,64.0,90,30.14,10.0,SSE,3.5,-,N/A,,Clear,150,2013-06-23 10:54:00
7:54 AM,71.1,64.9,81,30.14,10.0,SSE,6.9,-,N/A,,Clear,160,2013-06-23 11:54:00
8:54 AM,75.9,66.9,74,30.16,10.0,South,4.6,-,N/A,,Clear,190,2013-06-23 12:54:00
9:54 AM,79.0,66.9,66,30.17,10.0,South,5.8,-,N/A,,Clear,170,2013-06-23 13:54:00
10:54 AM,82.0,66.9,60,30.17,10.0,SW,6.9,-,N/A,,Clear,230,2013-06-23 14:54:00
11:54 AM,84.0,69.1,61,30.15,10.0,SSW,8.1,-,N/A,,Clear,200,2013-06-23 15:54:00
12:54 PM,84.9,66.0,53,30.13,10.0,South,8.1,-,N/A,,Clear,180,2013-06-23 16:54:00
1:54 PM,86.0,66.0,51,30.12,10.0,SW,9.2,-,N/A,,Clear,220,2013-06-23 17:54:00
2:54 PM,84.9,64.0,49,30.12,10.0,South,11.5,-,N/A,,Scattered Clouds,190,2013-06-23 18:54:00
3:54 PM,87.1,64.9,48,30.10,10.0,WSW,8.1,-,N/A,,Clear,240,2013-06-23 19:54:00
4:54 PM,87.1,64.9,48,30.09,10.0,South,6.9,-,N/A,,Partly Cloudy,190,2013-06-23 20:54:00
5:54 PM,86.0,64.9,49,30.07,10.0,SSW,8.1,-,N/A,,Partly Cloudy,200,2013-06-23 21:54:00
6:54 PM,82.9,66.0,56,30.07,10.0,SW,5.8,-,N/A,,Mostly Cloudy,220,2013-06-23 22:54:00
7:54 PM,82.0,68.0,62,30.07,10.0,SSW,5.8,-,N/A,,Clear,200,2013-06-23 23:54:00
8:54 PM,79.0,66.0,64,30.09,10.0,South,3.5,-,N/A,,Clear,180,2013-06-24 00:54:00
9:54 PM,77.0,64.0,64,30.10,10.0,SE,3.5,-,N/A,,Clear,130,2013-06-24 01:54:00
10:54 PM,75.0,64.0,69,30.11,10.0,South,4.6,-,N/A,,Clear,170,2013-06-24 02:54:00
11:54 PM,73.0,64.9,76,30.12,10.0,SSW,4.6,-,N/A,,Scattered Clouds,200,2013-06-24 03:54:00